HEMA

Details ICAO HEMA (RMF)
Name MARSA ALAM INTL
Region Egypt
Timezone Africa/Cairo (UTC+2.0)
Plans Departing 99
Arriving 159
Stats Elevation 251 ft / 77 m (AMSL)
Location 25.557113° 34.583711°
Runways 1
Magnetic Variation 4.108° E
Sunrise 2018-05-23 02:54:31 UTC / 2018-05-23 04:54:31 Local
Sunset 2018-05-23 16:25:09 UTC / 2018-05-23 18:25:09 Local
Advertisement - Login to hide

Runways

ID Width Length Bearing (true) Bearing (mag) Surface Threshold Offset Overrun Length
15 148 ft / 45 m 9,875 ft / 3,010 m 149.89° 145.78° Asphalt 0 ft / 0 m 295 ft / 90 m
33 148 ft / 45 m 9,875 ft / 3,010 m 329.90° 325.79° Asphalt 0 ft / 0 m 295 ft / 90 m

Map

Weather


0- 5 10 15 20 25 30 35+ Temperature / ° C

Clouds and Precipitation
Forecast for 2018-05-23 18:00 UTC. Updated 17 minutes ago

Ground ~20,000 ft ~40,000 ft Winds

METAR

HEMA 231600Z 35011KT CAVOK 35/10 Q1010 NOSIG

TAF

Not found

Frequencies

Ground 121.90 MHz GND
Approach 121.00 MHz APP
Tower 121.00 MHz TWR
Warning: Do not use this data for real-world aviation or navigation. No guarantee of current accuracy is given.